Regional Weather Roundup
Issued by NWS

Home | Current Version | Previous Version | Graphics & Text | Print | Product List | Glossary On
Versions: 1 2 3 4 5 6 7 8 9 10 11 12 13 14 15 16 17 18 19 20 21 22 23 24 25 26 27 28 29 30 31 32 33 34 35 36 37 38 39 40 41 42 43 44 45 46 47 48 49 50
000
ASUS43 KOAX 190402
RWRNE

WEATHER ROUNDUP FOR NEBRASKA
NATIONAL WEATHER SERVICE OMAHA NE
1000 PM CST WED JAN 18 2017

NOTES: SATELLITE DATA IS BEING USED TO AUGMENT CLOUD COVER ABOVE
       12000 FEET.
       "FAIR" INDICATES FEW OR NO CLOUDS BELOW 12,000 FEET WITH NO
       SIGNIFICANT WEATHER AND/OR OBSTRUCTIONS TO VISIBILITY.

  * THESE STATIONS DO NOT REPORT WEATHER SUCH AS RAIN...SNOW OR FOG.

NEZ001>004-019>022-054>056-190500-
NEBRASKA PANHANDLE

CITY           SKY/WX    TMP DP  RH WIND       PRES   REMARKS
SCOTTSBLUFF    CLOUDY    31  23  72 CALM      29.67F
ALLIANCE       CLOUDY    22  20  92 CALM      29.65F
CHADRON        CLOUDY    25  20  81 SW6       29.62F WCI  18
SIDNEY         CLOUDY    27  23  85 W7        29.68F WCI  19
$$

NEZ057>060-069>072-079>082-190500-
SOUTHWEST NEBRASKA

CITY           SKY/WX    TMP DP  RH WIND       PRES   REMARKS
NORTH PLATTE   CLOUDY    30  27  88 E3        29.74F
IMPERIAL       CLOUDY    30  26  85 SW5       29.73F WCI  25
LEXINGTON      CLEAR     36  33  90 CALM      29.78F
MCCOOK         CLEAR     34  34 100 CALM      29.76F FOG
OGALLALA       CLOUDY    31  28  90 CALM      29.71F
$$

NEZ005>010-023>029-035>040-094-190500-
NORTH CENTRAL NEBRASKA

CITY           SKY/WX    TMP DP  RH WIND       PRES   REMARKS
VALENTINE      CLOUDY    34  24  67 CALM      29.67F
AINSWORTH      CLEAR     35  30  82 S10       29.69S WCI  27
BROKEN BOW     CLEAR     37  35  92 S8        29.75F WCI  31
O`NEILL        CLEAR     38  36  93 S8        29.74S WCI  32
ORD            CLEAR     36  33  89 SE7       29.77F WCI  30
THEDFORD       CLEAR     36  32  87 S10       29.71F WCI  28
$$

NEZ041-046>049-061>064-073>077-083>087-190500-
SOUTH CENTRAL NEBRASKA

CITY           SKY/WX    TMP DP  RH WIND       PRES   REMARKS
GRAND ISLAND   CLEAR     38  36  92 S10       29.81F WCI  31
AURORA         CLEAR     39  35  85 S13       29.82F WCI  31
HASTINGS       PTCLDY    38  34  85 S6        29.83S WCI  33
HEBRON         CLEAR     38  33  84 S9        29.87F WCI  31
HOLDREGE       MOCLDY    37  35  93 S6        29.79F WCI  32
KEARNEY *      PTCLDY    36  32  87 S6        29.79F WCI  31
YORK           CLEAR     41  36  81 S13       29.84S
$$

NEZ011>018-030>034-042>045-190500-
NORTHEAST NEBRASKA

CITY           SKY/WX    TMP DP  RH WIND       PRES   REMARKS
NORFOLK        CLEAR     37  33  85 S9        29.81S WCI  30
ALBION         CLEAR     37  35  94 SE7       29.81S WCI  31
BLAIR          CLEAR     39  35  84 S9        29.87S WCI  33
FREMONT        CLEAR     37  34  91 SE3       29.86F
TEKAMAH        CLEAR     35  32  88 SE13      29.87F WCI  26
WAYNE          CLEAR     37  36  96 S8        29.82R WCI  30
$$

NEZ050>053-065>068-078-088>093-190500-
SOUTHEAST NEBRASKA

CITY           SKY/WX    TMP DP  RH WIND       PRES   REMARKS
LINCOLN        CLEAR     40  32  73 S14       29.88F WCI  32
OMAHA EPPLEY   CLEAR     40  34  79 S12       29.89S WCI  33
BEATRICE       CLEAR     39  33  76 SE8       29.89S WCI  34
FALLS CITY     PTCLDY    34  32  92 CALM      29.93S
NEBRASKA CITY  PTCLDY    37  35  90 S8        29.91S WCI  31
PLATTSMOUTH    CLEAR     39  33  78 S15       29.89S WCI  31
$$

NEZ044-045-051>053-067-190500-
OMAHA AREA

CITY           SKY/WX    TMP DP  RH WIND       PRES   REMARKS
OMAHA EPPLEY   CLEAR     40  34  79 S12       29.89S WCI  33
BLAIR          CLEAR     39  35  84 S9        29.87S WCI  33
FREMONT        CLEAR     37  34  91 SE3       29.86F
MILLARD        CLEAR     40  36  84 SE3       29.89S
OFFUTT AFB     CLEAR     38  38  99 SE10      29.89S WCI  32
PLATTSMOUTH    CLEAR     39  33  78 S15       29.89S WCI  31
WAHOO          FAIR      34  32  92 S6        29.86F WCI  29
$$



USA.gov is the U.S. government's official web portal to all federal, state and local government web resources and services.